• Em Portugal
  • Lista de países
  • Para 7 dias
  • Temperatura da água
  • Mapas de satélite
  • Mapa do tempo
  • Widgets de tempo
  • user-avatar
    Iniciar Sessão

    Previsão horária em Ordino

    Hoje, 23 Setembro, Domingo

    Tempo Temperatura Precipitação Vento Pressão Humidade
    00:00 +13°C° 0 mm 2 m/s 640 mmHg 80%
    01:00 +13°C° 0 mm 2 m/s 640 mmHg 78%
    02:00 +13°C° 0 mm 2 m/s 640 mmHg 76%
    03:00 +13°C° 0 mm 2 m/s 639 mmHg 74%
    04:00 +13°C° 0 mm 2 m/s 639 mmHg 71%
    05:00 +13°C° 0 mm 1 m/s 639 mmHg 68%
    06:00 +13°C° 0 mm 1 m/s 639 mmHg 65%
    07:00 +15°C° 0 mm 1 m/s 640 mmHg 58%
    08:00 +19°C° 0 mm 1 m/s 641 mmHg 51%
    09:00 +22°C° 0 mm 1 m/s 642 mmHg 44%
    10:00 +23°C° 0 mm 1 m/s 642 mmHg 43%
    11:00 +24°C° 0 mm 1 m/s 642 mmHg 41%
    12:00 +24°C° 0 mm 2 m/s 643 mmHg 42%
    13:00 +24°C° 0 mm 2 m/s 642 mmHg 42%
    14:00 +24°C° 0 mm 2 m/s 642 mmHg 43%
    15:00 +24°C° 0 mm 2 m/s 642 mmHg 43%
    16:00 +21°C° 0 mm 2 m/s 641 mmHg 51%
    17:00 +19°C° 0 mm 2 m/s 640 mmHg 59%
    18:00 +17°C° 0 mm 2 m/s 640 mmHg 67%
    19:00 +16°C° 0 mm 2 m/s 640 mmHg 71%
    20:00 +15°C° 0 mm 2 m/s 640 mmHg 75%
    21:00 +14°C° 0 mm 2 m/s 639 mmHg 79%
    22:00 +14°C° 0 mm 2 m/s 639 mmHg 80%
    23:00 +13°C° 0 mm 2 m/s 639 mmHg 80%

    Amanhã, 24 Setembro, Segunda-feira

    Tempo Temperatura Precipitação Vento Pressão Humidade
    00:00 +13°C° 0 mm 2 m/s 639 mmHg 81%
    01:00 +13°C° 0 mm 2 m/s 639 mmHg 79%
    02:00 +13°C° 0 mm 2 m/s 639 mmHg 78%
    03:00 +12°C° 0 mm 2 m/s 639 mmHg 76%
    04:00 +12°C° 0 mm 2 m/s 639 mmHg 79%
    05:00 +12°C° 0 mm 2 m/s 639 mmHg 82%
    06:00 +11°C° 0 mm 3 m/s 639 mmHg 85%
    07:00 +13°C° 0 mm 2 m/s 640 mmHg 81%
    08:00 +14°C° 0 mm 2 m/s 640 mmHg 77%
    09:00 +15°C° 0 mm 2 m/s 641 mmHg 73%
    10:00 +16°C° 0 mm 3 m/s 641 mmHg 67%
    11:00 +17°C° 0 mm 3 m/s 641 mmHg 61%
    12:00 +18°C° 0 mm 3 m/s 642 mmHg 55%
    13:00 +18°C° 0 mm 3 m/s 641 mmHg 54%
    14:00 +18°C° 0 mm 3 m/s 641 mmHg 52%
    15:00 +18°C° 0 mm 3 m/s 641 mmHg 51%
    16:00 +14°C° 0.1 mm 3 m/s 640 mmHg 57%
    17:00 +12°C° 0.1 mm 3 m/s 640 mmHg 63%
    18:00 +10°C° 0.1 mm 3 m/s 639 mmHg 69%
    19:00 +10°C° 0.1 mm 3 m/s 639 mmHg 67%
    20:00 +9°C° 0.1 mm 2 m/s 639 mmHg 65%
    21:00 +8°C° 0.1 mm 2 m/s 639 mmHg 64%
    22:00 +8°C° 0 mm 2 m/s 639 mmHg 62%
    23:00 +8°C° 0 mm 2 m/s 639 mmHg 60%

    Depois de amanhã, 25 Setembro, Terça-feira

    Tempo Temperatura Precipitação Vento Pressão Humidade
    00:00 +7°C° 0 mm 2 m/s 639 mmHg 58%
    01:00 +7°C° 0 mm 2 m/s 639 mmHg 59%
    02:00 +7°C° 0 mm 2 m/s 639 mmHg 59%
    03:00 +8°C° 0 mm 1 m/s 639 mmHg 59%
    04:00 +7°C° 0 mm 1 m/s 639 mmHg 60%
    05:00 +7°C° 0 mm 1 m/s 639 mmHg 62%
    06:00 +7°C° 0 mm 1 m/s 639 mmHg 63%
    07:00 +9°C° 0 mm 1 m/s 640 mmHg 59%
    08:00 +12°C° 0 mm 1 m/s 641 mmHg 55%
    09:00 +14°C° 0 mm 1 m/s 642 mmHg 51%
    10:00 +15°C° 0 mm 2 m/s 643 mmHg 50%
    11:00 +16°C° 0 mm 2 m/s 643 mmHg 49%
    12:00 +17°C° 0 mm 2 m/s 643 mmHg 47%
    13:00 +17°C° 0 mm 2 m/s 643 mmHg 51%
    14:00 +16°C° 0 mm 2 m/s 642 mmHg 55%
    15:00 +16°C° 0 mm 2 m/s 642 mmHg 58%
    16:00 +14°C° 0 mm 2 m/s 642 mmHg 64%
    17:00 +13°C° 0 mm 1 m/s 641 mmHg 70%
    18:00 +11°C° 0 mm 1 m/s 641 mmHg 76%
    19:00 +11°C° 0 mm 1 m/s 641 mmHg 79%
    20:00 +10°C° 0 mm 1 m/s 641 mmHg 83%
    21:00 +9°C° 0 mm 1 m/s 641 mmHg 86%
    22:00 +9°C° 0 mm 1 m/s 641 mmHg 87%
    23:00 +9°C° 0 mm 1 m/s 641 mmHg 88%

    26 Setembro, Quarta-feira

    Tempo Temperatura Precipitação Vento Pressão Humidade
    00:00 +9°C° 0 mm 1 m/s 641 mmHg 89%
    01:00 +9°C° 0 mm 1 m/s 641 mmHg 88%
    02:00 +8°C° 0 mm 1 m/s 641 mmHg 88%
    03:00 +8°C° 0 mm 1 m/s 641 mmHg 88%
    04:00 +8°C° 0 mm 1 m/s 641 mmHg 87%
    05:00 +8°C° 0 mm 1 m/s 641 mmHg 86%
    06:00 +8°C° 0 mm 1 m/s 641 mmHg 85%
    07:00 +9°C° 0 mm 2 m/s 642 mmHg 77%
    08:00 +13°C° 0 mm 2 m/s 643 mmHg 68%
    09:00 +15°C° 0 mm 2 m/s 644 mmHg 59%
    10:00 +16°C° 0 mm 3 m/s 645 mmHg 54%
    11:00 +18°C° 0 mm 3 m/s 645 mmHg 50%
    12:00 +19°C° 0 mm 3 m/s 645 mmHg 45%
    13:00 +19°C° 0 mm 3 m/s 645 mmHg 45%
    14:00 +19°C° 0 mm 3 m/s 645 mmHg 46%
    15:00 +19°C° 0 mm 3 m/s 644 mmHg 46%
    16:00 +17°C° 0 mm 3 m/s 644 mmHg 54%
    17:00 +14°C° 0 mm 2 m/s 643 mmHg 63%
    18:00 +12°C° 0 mm 2 m/s 642 mmHg 72%
    19:00 +10°C° 0 mm 2 m/s 642 mmHg 74%
    20:00 +11°C° 0 mm 1 m/s 642 mmHg 77%
    21:00 +10°C° 0 mm 1 m/s 643 mmHg 80%
    22:00 +10°C° 0 mm 1 m/s 642 mmHg 80%
    23:00 +10°C° 0 mm 1 m/s 642 mmHg 80%

    27 Setembro, Quinta-feira

    Tempo Temperatura Precipitação Vento Pressão Humidade
    00:00 +9°C° 0 mm 1 m/s 642 mmHg 80%
    01:00 +9°C° 0 mm 1 m/s 641 mmHg 79%
    02:00 +9°C° 0 mm 1 m/s 641 mmHg 78%
    03:00 +9°C° 0 mm 1 m/s 641 mmHg 77%
    04:00 +9°C° 0 mm 1 m/s 641 mmHg 73%
    05:00 +9°C° 0 mm 1 m/s 641 mmHg 69%
    06:00 +9°C° 0 mm 1 m/s 641 mmHg 65%
    07:00 +11°C° 0 mm 1 m/s 642 mmHg 57%
    08:00 +14°C° 0 mm 1 m/s 643 mmHg 48%
    09:00 +18°C° 0 mm 1 m/s 644 mmHg 40%
    10:00 +19°C° 0 mm 2 m/s 644 mmHg 38%
    11:00 +20°C° 0 mm 2 m/s 644 mmHg 35%
    12:00 +21°C° 0 mm 2 m/s 645 mmHg 33%
    13:00 +21°C° 0 mm 2 m/s 644 mmHg 35%
    14:00 +21°C° 0 mm 2 m/s 643 mmHg 36%
    15:00 +21°C° 0 mm 2 m/s 643 mmHg 38%
    16:00 +19°C° 0 mm 1 m/s 642 mmHg 49%
    17:00 +16°C° 0 mm 1 m/s 641 mmHg 60%
    18:00 +13°C° 0 mm 1 m/s 640 mmHg 71%
    19:00 +13°C° 0 mm 1 m/s 640 mmHg 72%
    20:00 +12°C° 0 mm 1 m/s 640 mmHg 73%
    21:00 +12°C° 0 mm 1 m/s 640 mmHg 74%
    22:00 +12°C° 0 mm 1 m/s 639 mmHg 72%
    23:00 +11°C° 0 mm 1 m/s 639 mmHg 71%

    28 Setembro, Sexta-feira

    Tempo Temperatura Precipitação Vento Pressão Humidade
    00:00 +11°C° 0 mm 1 m/s 639 mmHg 69%
    01:00 +11°C° 0 mm 1 m/s 638 mmHg 68%
    02:00 +11°C° 0 mm 1 m/s 638 mmHg 66%
    03:00 +10°C° 0 mm 2 m/s 638 mmHg 65%
    04:00 +10°C° 0 mm 2 m/s 637 mmHg 64%
    05:00 +10°C° 0 mm 2 m/s 637 mmHg 63%
    06:00 +10°C° 0 mm 2 m/s 637 mmHg 62%
    07:00 +13°C° 0 mm 1 m/s 638 mmHg 56%
    08:00 +16°C° 0 mm 1 m/s 639 mmHg 51%
    09:00 +20°C° 0 mm 1 m/s 640 mmHg 46%
    10:00 +21°C° 0 mm 1 m/s 640 mmHg 44%
    11:00 +22°C° 0 mm 1 m/s 640 mmHg 42%
    12:00 +23°C° 0 mm 1 m/s 640 mmHg 40%
    13:00 +23°C° 0 mm 2 m/s 640 mmHg 43%
    14:00 +21°C° 0 mm 2 m/s 639 mmHg 46%
    15:00 +20°C° 0 mm 2 m/s 638 mmHg 49%
    16:00 +19°C° 0.2 mm 2 m/s 638 mmHg 57%
    17:00 +17°C° 0.2 mm 2 m/s 637 mmHg 64%
    18:00 +15°C° 0.2 mm 1 m/s 637 mmHg 71%
    19:00 +15°C° 0.3 mm 1 m/s 636 mmHg 75%
    20:00 +14°C° 0.3 mm 1 m/s 636 mmHg 79%
    21:00 +13°C° 0.3 mm 1 m/s 636 mmHg 83%
    22:00 +13°C° 0.4 mm 1 m/s 636 mmHg 84%
    23:00 +12°C° 0.4 mm 1 m/s 636 mmHg 86%
    Mostrar mais